sat.trackr.live / text

‹ back to catalog

STARLINK-1801

NORAD 46701 · 2020-073AH

PAYLOAD ACTIVE UNKNOWN

§ Identity

Operator
Country
US
Launch date
2020-10-18
Launch site
AFETR
Launch vehicle
Mass (kg)
RCS (m²)

Purposes: comms

External: N2YO · Heavens-Above · Gunter

§ Orbital elements

Epoch: 2026-05-25T01:33:31.001760Z

Period
89.49 min
Inclination
53.0299°
Eccentricity
0.0009623
Mean motion
16.09070915 rev/d
Perigee alt
243.0 km
Apogee alt
255.8 km
Semi-major
6,627.5 km
B*
9.6798e-4
RAAN
171.5765°
Arg perigee
23.4098°
Mean anomaly
336.7371°
Rev number
30,986

§ Raw data

STARLINK-18011 46701U 20073AH  26145.06494215  .00881796  44208-3  96798-3 0  99912 46701  53.0299 171.5765 0009623  23.4098 336.7371 16.09070915309860

JSON: /api/v1/satellites/46701 · /tle

For live sub-satellite position, see the globe view (requires WebGL).

§ Visibility from observer

Set your observer location to see the next 7 days of passes ≥ 10°. The values pass through the URL so the page stays shareable.

No JS? Fill the form by hand. The geolocation button needs JavaScript.